Regional Weather Roundup
Issued by NWS

Home | Current Version | Previous Version | Text Only | Print | Product List | Glossary On
Versions: 1 2 3 4 5 6 7 8 9 10 11 12 13 14 15 16 17 18 19 20 21 22 23 24 25 26 27 28 29 30 31 32 33 34 35 36 37 38 39 40 41 42 43 44 45 46 47 48 49 50
000
ASUS44 KBMX 020310
RWRAL

ALABAMA REGIONAL WEATHER ROUNDUP
NATIONAL WEATHER SERVICE BIRMINGHAM AL
1000 PM CDT FRI AUG 01 2014

NOTE: "FAIR" INDICATES FEW OR NO CLOUDS BELOW 12,000 FEET
WITH NO SIGNIFICANT WEATHER AND/OR OBSTRUCTIONS TO VISIBILITY.

THE REMARK "TC" DENOTES TEMPERATURE IN DEGREES CELSIUS.

ALZ001>011-014-016>018-020-020400-
NORTH ALABAMA

CITY           SKY/WX    TMP DP  RH WIND       PRES   REMARKS
MUSCLE SHOALS  CLEAR     71  67  87 CALM      30.04R
HUNTSVILLE     PTCLDY    74  67  78 NE5       30.04R
DECATUR        CLEAR     69  67  93 N3        30.04R
HALEYVILLE     FAIR      70  69  96 CALM      30.07R
GADSDEN        PTCLDY    72  66  83 CALM      30.03R
$$

ALZ012-013-022-023-030>036-040>044-020400-
WEST CENTRAL ALABAMA

CITY           SKY/WX    TMP DP  RH WIND       PRES   REMARKS
TUSCALOOSA     MOCLDY    78  70  76 CALM      30.00R HAZE
$$

ALZ015-024>027-033>036-040>044-020400-
CENTRAL ALABAMA

CITY           SKY/WX    TMP DP  RH WIND       PRES   REMARKS
BIRMINGHAM     PTCLDY    77  67  71 CALM      30.05R
MONTGOMERY     MOCLDY    78  71  79 CALM      30.01R
SHELBY CO ARPT PTCLDY    74  70  87 CALM      30.03R
MAXWELL AFB    MOCLDY    76  73  92 CALM      30.01R
GREENVILLE     FAIR      76  71  85 CALM      30.01R
$$

ALZ019-021-028-029-037-038-045>048-020400-
EAST CENTRAL ALABAMA

CITY           SKY/WX    TMP DP  RH WIND       PRES   REMARKS
ANNISTON       PTCLDY    75  68  78 NE6       30.05R
ALEXANDER CITY MOCLDY    78  72  81 CALM      30.05R
AUBURN         MOCLDY    72  66  83 E6        30.08R
$$

ALZ051>064-020400-
SOUTHWEST ALABAMA

CITY           SKY/WX    TMP DP  RH WIND       PRES   REMARKS
MOBILE         CLOUDY    75  71  87 CALM      30.00R
BROOKLEY FIELD LGT RAIN  77  70  79 NW5       30.00R
EVERGREEN      CLOUDY    76  72  87 CALM      30.00R
$$

ALZ049-050-065>069-020400-
SOUTHEAST ALABAMA

CITY           SKY/WX    TMP DP  RH WIND       PRES   REMARKS
DOTHAN         MOCLDY    76  71  85 NE3       30.04R
OZARK          PTCLDY    76  71  87 NE6       30.00R
TROY           PTCLDY    74  70  87 CALM      30.02R
EUFAULA        CLOUDY    78  71  79 E8        30.01R
$$


USA.gov is the U.S. government's official web portal to all federal, state and local government web resources and services.